Regional Weather Roundup
Issued by NWS

Home | Current Version | Previous Version | Graphics & Text | Print | Product List | Glossary On
Versions: 1 2 3 4 5 6 7 8 9 10 11 12 13 14 15 16 17 18 19 20 21 22 23 24 25 26 27 28 29 30 31 32 33 34 35 36 37 38 39 40 41 42 43 44 45 46 47 48 49 50
000
ASUS44 KMEG 202110
RWRTN
TENNESSEE HOURLY STATE WEATHER ROUNDUP
NATIONAL WEATHER SERVICE MEMPHIS TN
400 PM CDT WED SEP 20 2017

TNZ002-004-019-021-049-052-054-088>092-202200-
WEST TENNESSEE

CITY           SKY/WX    TMP DP  RH WIND       PRES   REMARKS
MEMPHIS INTL   PTSUNNY   90  72  55 SW9       29.95F HX  97
NWS MEMPHIS      N/A     90 N/A N/A MISG        N/A
JACKSON        MOSUNNY   91  71  51 SW8       29.96F HX  97
DYERSBURG      PTSUNNY   91  73  55 VRB7      29.95F HX  99
SOMERVILLE     PTSUNNY   90  72  55 VRB6G12   29.95F HX  96
COVINGTON      MOSUNNY   91  72  52 SW8       29.94F HX  98
BOLIVAR        MOSUNNY   88  70  55 CALM      29.96S HX  92
PARIS          MOSUNNY   88  70  55 SW7       29.95F HX  92
HUNTINGDON     SUNNY     88  72  58 VRB3      29.95F HX  94
LEXINGTON      MOSUNNY   90  72  55 SW6       29.96F HX  96
SELMER         MOSUNNY   90  72  55 S6        29.97F HX  96
SAVANNAH       MOSUNNY   90  72  55 VRB6      29.96F HX  96
$$

TNZ008-025-027-028-033-062-065-066-202200-
NORTH MIDDLE TENNESSEE

CITY           SKY/WX    TMP DP  RH WIND       PRES   REMARKS
NASHVILLE      PTSUNNY   87  70  56 E8        29.99F HX  92
PORTLAND       MOSUNNY   88  70  55 CALM      29.99F HX  92
CLARKSVILLE    SUNNY     89  69  51 SW7       29.97F HX  93
SMYRNA         MOSUNNY   88  70  55 S6        30.00F HX  92
COOKEVILLE     MOSUNNY   84  70  61 S3        30.01F
GALLATIN       SUNNY     90  70  51 VRB5      30.01F HX  95
CROSSVILLE     CLOUDY    80  66  62 SE7       30.07S
$$

TNZ061-075-076-078-094-096-097-202200-
SOUTH MIDDLE TENNESSEE

CITY           SKY/WX    TMP DP  RH WIND       PRES   REMARKS
TULLAHOMA      MOSUNNY   86  64  48 VRB3      30.03F
WINCHESTER     SUNNY     88  66  48 SW3         N/A  HX  90
MCMINNVILLE    SUNNY     90  72  55 CALM      30.02S HX  96
COLUMBIA       MOSUNNY   88  68  51 SE5       29.97S HX  91
SHELBYVILLE    MOSUNNY   86  70  58 SE5       30.00S HX  90
$$

TNZ017-018-042-046-047-202200-
NORTHEAST TENNESSEE

CITY           SKY/WX    TMP DP  RH WIND       PRES   REMARKS
TRI CITIES     MOSUNNY   84  61  45 W3        30.04F
ELIZABETHTON   SUNNY     82  59  44 W6        30.04S
$$

TNZ012-013-036-069-073-074-202200-
CENTRAL EAST TENNESSEE

CITY           SKY/WX    TMP DP  RH WIND       PRES   REMARKS
KNOXVILLE      MOSUNNY   86  63  45 CALM      30.01F
OAK RIDGE      SUNNY     84  66  54 VRB3      30.03F
DOWNTOWN KNOXV SUNNY     88  66  48 SE3       30.00F HX  90
GATLINBURG     MOSUNNY   88  61  40 SW5       30.01F
MORRISTOWN     PTSUNNY   86  63  45 NW5       30.02F
JACKSBORO      PTSUNNY   81  68  65 CALM      30.06S
$$

TNZ083-085-099-202200-
SOUTHEAST TENNESSEE

CITY           SKY/WX    TMP DP  RH WIND       PRES   REMARKS
CHATTANOOGA    MOSUNNY   88  65  46 CALM      30.01F HX  90
DAYTON         CLEAR     88  70  55 VRB5      30.00S HX  92
$$

SKY/WX REPORTED AS FAIR MEANS FEW OR NO CLOUDS BELOW
12 THOUSAND FEET.





USA.gov is the U.S. government's official web portal to all federal, state and local government web resources and services.